Wind_Speed
12 13 13 13 13 12 11 12 11 12 12 12 12 12 12 11 12 11 10 10 9 8 7 7 6 5 3 3 2 2 2 1 1 1 2 3 3 4 5 5 7 7 8 9
11 12 11 12 12 13 12 10 9 9 11 11 11 11 12 11 11 12 11 10 10 10 9 8 7 5 5 4 3 3 2 2 2 2 2 2 3 3 4 5 6 7 8 8
8 10 10 11 11 11 11 10 10 8 8 8 8 9 10 11 11 11 11 11 11 10 10 8 7 7 6 5 4 4 3 3 3 3 3 2 3 3 4 5 6 7 7 7
7 8 9 10 11 10 9 10 9 7 7 7 7 7 9 9 10 11 11 11 10 10 9 8 7 7 6 6 5 5 4 3 3 3 3 3 3 4 5 6 6 6 7 7
6 7 8 9 9 9 8 8 7 6 6 6 6 7 6 7 7 9 9 10 9 9 8 8 8 7 6 7 6 6 5 5 4 4 4 4 4 4 5 5 5 6 6 7
5 6 7 8 8 7 6 7 7 6 6 5 6 7 7 7 7 8 9 9 8 8 8 8 8 7 7 8 7 7 6 5 5 5 5 5 5 4 4 4 4 5 5 6
5 5 6 7 8 7 7 7 6 5 4 4 5 6 7 8 9 9 10 9 9 8 8 8 7 7 8 8 8 7 7 6 6 6 6 5 5 5 5 4 4 5 5 6
4 4 5 6 7 7 8 8 6 5 3 4 4 5 5 7 8 9 9 9 9 9 8 8 8 8 8 8 8 8 8 7 7 6 6 6 6 6 5 5 5 5 5 6
4 3 4 5 7 8 8 8 5 3 1 3 5 5 6 7 7 9 9 9 9 9 9 9 9 9 8 8 8 8 8 7 7 7 7 7 7 7 6 6 5 5 5 6
4 4 4 5 6 8 8 8 7 5 3 2 3 5 6 6 7 8 10 10 10 9 9 9 9 9 9 8 8 8 7 7 7 7 7 8 8 8 7 7 6 6 6 7
6 4 4 4 5 6 8 8 8 7 5 4 3 5 7 7 7 8 10 10 10 9 9 9 9 8 8 8 7 7 7 8 8 8 8 8 8 8 8 8 7 7 7 7
7 6 5 4 5 5 7 8 9 8 7 6 7 7 7 9 9 9 10 10 10 10 10 9 9 9 9 8 8 8 8 8 9 9 9 9 9 8 8 8 7 7 8 8
8 7 5 5 6 6 7 8 9 9 9 8 7 8 9 10 11 11 11 11 11 11 10 9 9 9 9 10 10 9 9 9 10 10 10 10 9 9 9 8 8 9 9 10
9 8 6 6 7 7 7 8 9 9 9 9 9 10 10 10 11 11 11 11 11 11 11 11 11 11 11 11 10 10 10 10 10 10 10 9 9 9 8 9 9 10 10 10
10 9 9 9 8 8 9 9 10 10 10 10 11 12 12 12 11 12 12 11 11 12 12 12 12 12 12 12 11 11 11 11 11 11 10 10 10 10 10 10 10 11 12 12
12 11 10 10 10 9 10 10 10 11 11 12 13 14 14 14 14 14 13 12 12 12 12 12 12 12 12 12 12 12 12 12 12 12 12 11 11 12 12 12 13 14 14 14
13 13 12 11 11 11 10 10 11 12 12 13 13 14 15 15 15 15 14 13 13 13 13 13 13 13 13 13 13 13 13 14 13 13 13 13 13 13 14 15 15 15 16 16
14 14 14 13 12 12 11 12 13 13 13 13 14 15 15 16 16 15 15 14 14 13 14 14 14 14 14 14 14 14 14 14 14 14 14 14 15 16 16 17 17 17 18 19
17 16 16 15 14 14 13 14 14 14 14 14 14 14 15 15 16 16 15 15 15 14 14 15 15 15 15 15 15 16 16 16 15 15 15 16 16 17 18 18 18 19 20 20
18 18 18 17 16 15 15 16 15 15 15 16 15 15 15 15 16 16 15 16 16 16 15 16 16 16 17 17 17 17 17 17 16 17 17 18 18 19 20 20 20 21 22 22
18 19 19 18 18 17 18 18 16 16 17 17 16 16 16 17 17 16 16 17 16 16 16 16 16 17 17 17 17 17 17 18 19 19 19 20 20 21 21 22 23 24 24 25
20 20 20 20 20 20 21 20 19 19 19 19 18 18 18 18 18 18 18 18 17 17 18 18 18 18 18 18 18 19 19 20 21 21 21 22 22 23 24 24 25 26 26 27
23 23 23 22 23 23 22 22 21 20 21 20 20 19 19 20 19 19 19 19 19 19 19 19 19 19 20 20 20 21 22 22 22 23 23 23 24 25 26 26 27 27 28 29
24 24 24 24 24 24 24 24 23 22 22 21 20 20 20 20 20 19 19 19 19 19 20 20 20 20 21 21 22 23 23 24 24 24 25 26 26 27 27 28 29 29 30 31
26 25 25 25 25 26 26 26 25 24 23 23 22 22 21 21 21 20 20 20 21 21 21 21 22 22 22 22 23 24 25 25 26 26 27 28 28 29 30 30 31 32 33 35
27 28 28 27 27 28 28 27 26 25 25 24 24 23 23 23 22 22 22 22 22 22 22 23 23 24 24 25 25 26 27 28 28 29 29 30 31 31 32 33 34 35 36 37
Wind_Direction
181 184 189 197 199 203 202 203 210 213 213 216 214 215 218 219 219 221 218 216 213 216 216 213 218 221 220 230 237 249 252 264 301 331 345 352 359 0 3 7 10 13 13 15
174 179 188 195 199 201 202 202 207 204 209 211 216 220 219 221 218 214 213 216 216 220 221 220 223 225 229 239 241 248 243 254 273 297 311 330 348 353 357 2 5 8 10 12
179 178 184 191 195 195 205 210 209 207 200 212 219 212 209 214 215 212 213 218 219 221 219 217 222 231 236 241 246 245 247 261 270 281 294 314 337 349 353 356 358 3 5 6
175 178 185 195 201 204 209 210 210 214 212 211 215 209 210 212 213 214 213 213 219 218 217 218 224 233 241 246 250 244 248 259 265 273 284 304 327 338 343 348 352 358 360 2
184 190 189 194 198 202 205 208 209 212 215 224 227 229 222 221 216 216 214 213 219 214 217 225 232 238 243 251 253 250 247 257 265 271 278 292 308 318 329 338 346 354 359 2
175 185 191 192 190 189 192 193 202 215 218 234 234 241 239 223 227 221 220 218 218 213 221 230 235 240 247 253 254 254 256 261 266 268 275 285 295 304 316 329 336 345 353 357
169 177 184 197 199 193 193 192 190 209 228 236 234 246 251 237 237 232 227 222 224 223 228 230 236 247 250 250 252 255 259 260 263 266 268 276 286 292 302 311 318 329 338 346
169 183 189 193 191 183 186 188 193 205 218 253 265 268 263 266 246 236 232 230 230 231 232 236 244 250 252 252 253 254 257 261 261 260 263 273 281 283 288 295 304 315 327 337
167 187 187 189 192 192 187 194 204 201 204 302 307 285 279 271 247 239 237 236 236 232 233 244 249 251 252 253 255 257 257 256 255 259 265 273 275 278 283 287 294 302 312 326
177 199 200 193 201 199 199 207 210 206 221 253 296 291 287 264 250 249 246 244 240 239 244 246 247 248 249 249 250 251 250 252 259 264 268 272 273 277 280 283 286 292 297 310
206 208 217 216 210 207 204 209 210 216 227 238 248 260 271 271 262 254 249 247 246 250 251 249 247 246 244 241 243 248 252 257 260 263 267 272 273 275 278 281 280 283 291 304
212 214 216 222 225 226 216 211 215 224 226 236 252 267 271 275 271 259 251 250 250 249 250 250 250 249 246 245 245 249 253 255 258 262 269 271 274 274 274 276 274 279 287 298
208 208 211 229 235 233 231 229 232 234 234 236 240 260 268 273 273 268 264 260 256 249 252 250 252 251 251 249 248 250 252 257 263 269 272 273 273 273 275 275 275 280 287 295
216 210 210 228 246 248 247 247 247 244 240 237 242 256 264 265 267 265 266 265 260 254 254 254 254 253 255 253 251 251 255 260 266 269 270 273 273 274 276 279 280 282 288 294
221 217 222 233 246 258 260 257 251 247 244 244 243 248 257 262 261 263 265 265 262 259 256 256 255 254 253 253 253 254 258 263 267 268 268 273 273 275 278 283 284 285 291 295
229 226 230 238 248 257 261 263 261 256 251 251 250 247 247 254 259 259 262 263 263 261 258 256 256 254 253 253 254 257 262 264 268 270 269 271 274 279 281 283 286 289 291 293
234 231 232 238 247 256 263 270 268 266 261 259 255 253 251 252 255 259 263 265 265 262 260 258 258 258 258 258 258 259 264 266 268 270 269 270 273 278 281 284 287 290 292 294
240 237 237 241 246 251 260 265 269 271 271 266 258 255 257 259 258 261 263 266 266 263 262 262 260 258 258 261 262 263 266 267 270 270 271 273 277 279 283 285 288 290 292 294
242 242 243 244 248 256 258 264 270 272 271 268 265 262 261 261 261 261 264 268 269 268 265 262 261 260 260 261 264 265 267 268 269 269 271 274 280 282 283 285 287 289 291 292
245 246 247 248 250 255 259 262 266 269 269 265 265 264 263 262 262 264 267 268 270 270 269 264 263 264 264 264 265 267 268 268 270 271 273 276 280 282 284 286 286 288 290 291
250 248 249 250 251 253 256 261 265 265 264 265 264 264 264 264 264 266 267 268 270 270 269 268 266 266 267 267 266 268 270 271 272 274 276 279 282 283 285 286 287 289 291 293
251 254 253 252 251 251 256 260 262 263 264 265 265 265 265 265 264 264 265 266 268 268 268 269 268 267 267 268 269 270 272 274 275 276 278 280 283 285 286 287 288 290 291 292
247 251 253 253 253 255 258 261 263 264 265 265 266 266 265 265 264 264 264 265 266 267 268 268 268 268 268 269 270 271 274 276 278 279 279 281 283 285 286 287 289 290 291 293
246 250 252 253 255 258 258 260 262 263 263 265 266 266 264 264 264 263 263 264 266 267 268 269 269 270 271 271 272 273 275 277 278 280 281 282 284 285 286 287 288 289 291 293
248 249 251 253 254 256 257 259 261 263 264 264 264 264 264 263 263 263 264 266 267 268 269 270 271 271 272 274 275 275 275 277 278 280 281 283 284 285 286 286 288 289 290 292
250 251 252 253 253 255 257 260 263 264 264 263 263 263 263 263 263 264 265 267 269 270 271 273 273 273 274 275 275 276 277 278 278 280 281 283 284 285 286 287 289 290 291 292
Height
5827 5831 5832 5835 5838 5840 5842 5845 5847 5850 5852 5854 5856 5859 5861 5864 5866 5868 5869 5871 5873 5875 5877 5878 5880 5881 5881 5882 5883 5883 5884 5884 5884 5883 5883 5883 5882 5882 5881 5880 5879 5877 5876 5875
5829 5831 5833 5836 5838 5841 5843 5845 5847 5849 5851 5854 5856 5857 5860 5862 5864 5866 5868 5870 5872 5874 5876 5877 5879 5880 5881 5881 5882 5882 5882 5883 5883 5883 5883 5882 5882 5881 5881 5879 5878 5877 5876 5875
5830 5832 5833 5836 5839 5840 5843 5846 5848 5849 5851 5853 5855 5857 5859 5861 5863 5865 5867 5868 5870 5873 5875 5876 5877 5878 5879 5880 5880 5881 5881 5882 5882 5882 5882 5881 5881 5880 5880 5879 5878 5877 5876 5875
5831 5833 5835 5837 5839 5841 5843 5846 5848 5850 5852 5853 5856 5857 5859 5860 5862 5864 5865 5867 5869 5871 5873 5875 5876 5877 5878 5878 5879 5880 5880 5880 5880 5880 5880 5880 5880 5880 5879 5878 5877 5877 5876 5875
5833 5835 5836 5838 5840 5842 5844 5846 5848 5850 5852 5854 5855 5857 5859 5859 5861 5863 5865 5866 5868 5870 5871 5873 5874 5875 5876 5877 5877 5878 5878 5878 5879 5879 5879 5879 5879 5878 5878 5877 5876 5876 5875 5874
5834 5836 5837 5839 5841 5843 5845 5847 5849 5850 5852 5854 5855 5857 5858 5859 5860 5862 5863 5865 5867 5868 5870 5871 5872 5873 5874 5875 5876 5876 5877 5877 5877 5877 5877 5877 5877 5877 5876 5876 5875 5875 5874 5874
5835 5837 5838 5840 5842 5843 5846 5848 5850 5851 5852 5854 5855 5856 5857 5858 5859 5860 5862 5863 5865 5867 5868 5869 5870 5871 5872 5873 5874 5874 5875 5875 5875 5875 5875 5875 5875 5875 5875 5874 5874 5874 5873 5873
5836 5838 5839 5841 5842 5844 5845 5848 5850 5852 5852 5853 5854 5855 5857 5857 5858 5859 5860 5862 5864 5865 5867 5868 5869 5870 5870 5871 5871 5872 5872 5873 5873 5873 5873 5873 5873 5872 5872 5872 5872 5872 5872 5872
5837 5839 5840 5841 5842 5844 5845 5847 5849 5850 5851 5853 5854 5855 5856 5856 5857 5858 5859 5861 5862 5864 5865 5866 5867 5868 5868 5868 5869 5869 5870 5870 5871 5871 5871 5871 5870 5870 5870 5870 5870 5870 5870 5870
5838 5840 5840 5841 5843 5844 5846 5847 5849 5850 5852 5853 5855 5854 5855 5855 5856 5857 5858 5860 5861 5862 5863 5864 5865 5865 5865 5866 5866 5867 5868 5868 5869 5869 5869 5868 5867 5867 5867 5867 5867 5868 5868 5868
5838 5840 5841 5842 5843 5844 5846 5848 5848 5850 5851 5852 5853 5856 5854 5855 5855 5856 5857 5858 5859 5860 5861 5862 5863 5863 5863 5864 5864 5865 5866 5867 5867 5867 5866 5865 5865 5864 5864 5863 5864 5865 5866 5866
5838 5839 5840 5842 5843 5844 5845 5847 5848 5850 5851 5852 5853 5856 5853 5854 5854 5855 5856 5857 5858 5858 5859 5860 5860 5861 5861 5862 5863 5864 5864 5865 5865 5865 5864 5863 5862 5861 5861 5861 5861 5862 5863 5864
5837 5839 5840 5842 5844 5844 5845 5846 5847 5848 5849 5850 5852 5854 5852 5852 5853 5853 5854 5855 5855 5856 5857 5858 5858 5859 5859 5860 5861 5862 5862 5863 5863 5862 5862 5861 5860 5859 5859 5859 5860 5860 5861 5862
5837 5838 5840 5841 5841 5842 5843 5844 5845 5847 5847 5849 5850 5851 5850 5850 5851 5852 5852 5852 5853 5854 5854 5855 5856 5856 5857 5858 5858 5859 5860 5860 5860 5860 5860 5859 5858 5858 5857 5858 5858 5859 5859 5859
5836 5837 5838 5839 5840 5841 5842 5842 5844 5845 5846 5847 5848 5848 5849 5849 5849 5850 5850 5850 5851 5851 5852 5852 5853 5853 5854 5855 5856 5857 5857 5858 5858 5858 5858 5857 5857 5857 5856 5856 5857 5857 5857 5857
5834 5835 5836 5837 5838 5839 5840 5841 5842 5843 5843 5844 5845 5846 5846 5847 5847 5847 5847 5848 5848 5849 5849 5850 5850 5851 5852 5852 5853 5854 5855 5855 5855 5855 5855 5855 5855 5855 5855 5854 5854 5855 5854 5854
5831 5833 5834 5835 5836 5837 5838 5839 5839 5840 5840 5841 5842 5843 5843 5843 5844 5845 5845 5845 5846 5846 5847 5847 5847 5848 5849 5849 5850 5851 5851 5851 5852 5852 5852 5853 5853 5853 5852 5852 5852 5851 5851 5851
5829 5830 5831 5832 5834 5835 5838 5836 5836 5837 5837 5838 5838 5839 5840 5840 5841 5841 5842 5842 5843 5843 5843 5844 5844 5845 5846 5846 5847 5847 5848 5848 5848 5849 5849 5849 5849 5849 5849 5849 5848 5848 5847 5846
5825 5826 5828 5829 5830 5831 5833 5833 5833 5833 5834 5834 5834 5835 5836 5836 5837 5838 5838 5839 5839 5840 5840 5840 5841 5841 5842 5843 5843 5844 5844 5844 5845 5845 5845 5845 5845 5845 5845 5844 5844 5843 5842 5841
5821 5823 5824 5825 5827 5828 5829 5829 5829 5831 5830 5830 5831 5831 5832 5833 5834 5835 5835 5835 5835 5836 5836 5836 5837 5838 5838 5839 5839 5840 5840 5840 5841 5841 5841 5841 5841 5840 5840 5840 5839 5838 5837 5836
5817 5818 5820 5821 5822 5823 5824 5824 5826 5827 5827 5826 5827 5827 5828 5829 5830 5831 5831 5831 5831 5832 5832 5832 5833 5833 5834 5834 5834 5835 5835 5836 5836 5836 5836 5836 5835 5835 5834 5834 5833 5832 5831 5830
5812 5813 5815 5816 5817 5820 5818 5820 5821 5821 5821 5821 5822 5823 5824 5824 5825 5825 5826 5826 5827 5827 5828 5828 5828 5829 5829 5829 5830 5830 5831 5831 5830 5831 5830 5830 5829 5829 5828 5827 5826 5825 5824 5822
5807 5809 5810 5812 5813 5813 5814 5814 5815 5816 5816 5817 5818 5818 5819 5819 5820 5820 5821 5821 5822 5822 5823 5823 5823 5824 5824 5824 5824 5825 5825 5824 5824 5824 5824 5824 5823 5822 5821 5820 5819 5818 5816 5814
5800 5802 5803 5805 5806 5807 5808 5808 5809 5810 5811 5812 5812 5813 5813 5814 5814 5815 5816 5816 5817 5817 5818 5818 5818 5818 5818 5818 5818 5818 5818 5818 5818 5817 5817 5816 5815 5815 5814 5812 5811 5810 5808 5806
5794 5796 5796 5798 5800 5800 5801 5802 5803 5804 5805 5806 5806 5807 5807 5808 5809 5809 5810 5811 5811 5811 5812 5812 5812 5812 5812 5812 5812 5811 5811 5811 5810 5810 5809 5808 5807 5806 5805 5804 5803 5801 5799 5797
5787 5788 5790 5791 5792 5793 5794 5795 5797 5798 5799 5800 5800 5801 5802 5802 5803 5803 5804 5804 5805 5805 5805 5805 5805 5805 5805 5805 5804 5804 5803 5803 5802 5802 5801 5800 5799 5798 5796 5795 5793 5791 5790 5787